Regional Weather Roundup
Issued by NWS Sterling, VA

Home | Current Version | Previous Version | Graphics & Text | Print | Product List | Glossary Off
Versions: 1 2 3 4 5 6 7 8 9 10 11 12 13 14 15 16 17 18 19 20 21 22 23 24 25 26 27 28

000
ASUS41 KLWX 260111
RWRLWX

REGIONAL WEATHER ROUNDUP
NATIONAL WEATHER SERVICE BALTIMORE MD/WASHINGTON DC
900 PM EDT THU MAY 25 2017

Note: "FAIR" indicates few or no clouds below 12,000 feet
with no significant weather and/or obstructions to visibility.
 TC=TEMPERATURE CELSIUS

 * =Non NWS site. Station does not report precipitation (e.g. rain,
    snow, etc.), thunder, or fog.

DCZ001-MDZ009-015-VAZ040>042-051-053>054-260200-
WASHINGTON METRO

CITY           SKY/WX    TMP DP  RH WIND       PRES   REMARKS
WASHINGTON NAT LGT RAIN  62  59  90 SE7       29.47F
DULLES         LGT RAIN  59  57  93 NW9       29.49R
ANDREWS AFB    CLOUDY    60  59  97 SW6       29.47F
FT BELVOIR     MOCLDY    60  58  94 S5        29.47F
QUANTICO       CLOUDY    61  59  93 W6        29.51S THUNDER
COLLEGE PARK*  CLOUDY    60  57  92 CALM      29.47F
LEESBURG*      CLOUDY    59  59 100 NW7       29.51R
MANASSAS*      CLOUDY    59  58  96 SW7       29.51R
GAITHERSBURG*  CLOUDY    58  57  97 CALM      29.49R

$$

MDZ006>007-011-014-260200-
BALTIMORE METRO

CITY           SKY/WX    TMP DP  RH WIND       PRES   REMARKS
BWI AIRPORT    LGT RAIN  58  58 100 S7        29.46S
MD SCIENCE CTR   N/A     62  59  90 MISG      29.45R
MARTIN STATE   HVY RAIN  61  61 100 E7        29.47F
ANNAPOLIS      LGT RAIN  61  60  97 CALM      29.47S
FORT MEADE*    CLOUDY    57  55  94 SW6       29.50R

$$

MDZ012-015-019>023-260200-
MARYLAND EASTERN SHORE

CITY           SKY/WX    TMP DP  RH WIND       PRES   REMARKS
OCEAN CITY     CLOUDY    60  57  89 W5        29.49F
SALISBURY      CLOUDY    60  59  96 SW7       29.49F
BAY BRIDGE AP* CLOUDY    61  57  88 SW7       29.48F
CAMBRIDGE*     PTCLDY    61  57  88 CALM      29.49F
EASTON*        MOCLDY    61  57  88 SW5       29.52F

$$

MDZ017>025-260200-
SOUTHERN MARYLAND

CITY           SKY/WX    TMP DP  RH WIND       PRES   REMARKS
PATUXENT RIVER CLOUDY    62  62 100 CALM      29.49S
ST INIGOES     CLOUDY    64  58  80 SW9       29.48F
LEONARDTOWN*   MOCLDY    61  59  94 NW5       29.52R

$$

MDZ003>005-260200-
NORTH CENTRAL MARYLAND

CITY           SKY/WX    TMP DP  RH WIND       PRES   REMARKS
FREDERICK*     NOT AVBL
HAGERSTOWN APT CLOUDY    62  60  93 SW6       29.49R
WESTMINSTER*   CLOUDY    61  57  88 N5        29.49R

$$

MDZ501>502-260200-
WESTERN MARYLAND

CITY           SKY/WX    TMP DP  RH WIND       PRES   REMARKS
OAKLAND*       CLOUDY    50  46  87 W8        29.59R
CUMBERLAND*    PTCLDY    61  59  94 W7        29.57R

$$

VAZ025>031-260200-
SHENANDOAH VALLEY

CITY           SKY/WX    TMP DP  RH WIND       PRES   REMARKS
WINCHESTER*    LGT RAIN  57  55  94 W5        29.52S
FRONT ROYAL*   MOCLDY    57  55  94 S3        29.53R
LURAY*         PTCLDY    55  55 100 S3          N/A
NEW MARKET*    PTCLDY    56  55  95 CALM      29.55R
STAUNTON*      MOCLDY    59  50  73 SW6       29.59R
WAYNESBORO*    MOCLDY    59  52  76 W5        29.58R

$$

WVZ021-048>050-054>055-260200-
EASTERN WEST VIRGINIA PANHANDLE

CITY           SKY/WX    TMP DP  RH WIND       PRES   REMARKS
MARTINSBURG    CLOUDY    60  59  96 W8        29.50R
PETERSBURG*    CLOUDY    61  52  71 SW3       29.56R

$$

VAZ036>039-050-260200-
CENTRAL FOOTHILLS

CITY           SKY/WX    TMP DP  RH WIND       PRES   REMARKS
CHARLOTTESVILL MOCLDY    64  53  67 S6        29.55R
CULPEPER*      CLOUDY    59  59  98 CALM      29.53R
ORANGE*        PTCLDY    55  55 100 CALM      29.54R
GORDONSVILLE*  PTCLDY    60  56  87 W3        29.54R
WARRENTON*     CLOUDY    58  55  89 S5        29.51R

$$

VAZ055>057-260200-
NORTH AND CENTRAL PIEDMONT

CITY           SKY/WX    TMP DP  RH WIND       PRES   REMARKS
FREDERICKSBRG* MOCLDY    62  61  97 CALM      29.51R
STAFFORD*      CLOUDY    57  57 100 SW3       29.55R THUNDER

$$

NCZ024-NYZ072-PAZ021-071-VAZ022-071-260200-
OTHER REGIONAL OBSERVATIONS

CITY           SKY/WX    TMP DP  RH WIND       PRES   REMARKS
NEW YORK CITY  CLOUDY    57  56  96 E16       29.52F
PHILADELPHIA   CLOUDY    61  58  90 NE9       29.46F
PITTSBURGH     CLOUDY    59  57  93 SW6       29.54R
ROANOKE        CLOUDY    58  55  90 SW10      29.64R
RICHMOND       MOCLDY    64  57  78 SW14      29.54R
RALEIGH        MOCLDY    62  59  90 SW9       29.66R

$$

ANZ530>537-260200-
MARINE OBSERVATIONS

STATION/POSITION TIME  TEMP    WIND        PRES
                       AIR SEA DIR/SP/G
                 (UTC) (F)     (DEG/KT/KT) (MB)
THOMAS PT LIGHT  0100   61 65  230/  6/  7   N/A
BALT KEY BRIDGE  0036   61     320/  7/  8  997.3F
COVE POINT       0036   62     280/  5/  6  999.4S
LEWISETTA        0036   63 68  230/  9/ 10  998.6F
SOLOMONS ISLAND  0036   63 66  280/  3/  4   N/A
PINEY POINT      0042          230/  8/  9   N/A

$$





USA.gov is the U.S. government's official web portal to all federal, state and local government web resources and services.